EFIV Weather Reports


Display with metric or nautical units.
time (UTC)temp
F
wind
direction
speed
MPH
gust
MPH
rain 1hr
in
rain 24hr
in
rain mn
in
humidity
%
barometer
mb
20260906234505 36 357 3.0 7.0 0.00 0.00 0.00 92 1013.8
20260906232503 36 339 4.0 8.0 0.00 0.00 0.00 92 1013.7
20260906230503 37 338 2.0 6.0 0.00 0.00 0.00 91 1013.7
20260906224504 37 304 2.0 4.0 0.00 0.00 0.00 92 1013.6
20260906222503 37 266 2.0 3.0 0.00 0.00 0.00 91 1013.5
20260906220501 37 38 2.0 4.0 0.00 0.00 0.00 91 1013.5
20260906214501 38 40 3.0 4.0 0.00 0.00 0.00 88 1013.5
20260906212502 38 28 2.0 4.0 0.00 0.00 0.00 85 1013.5
20260906210500 39 357 2.0 4.0 0.00 0.00 0.00 88 1013.5
20260906204134 39 354 3.0 6.0 0.00 0.00 0.00 88 1013.4
20260906202503 39 353 4.0 6.0 0.00 0.00 0.00 88 1013.3
20260906200134 39 7 5.0 6.0 0.00 0.00 0.00 86 1013.2
20260906194502 40 10 4.0 6.0 0.00 0.00 0.00 85 1013.0
20260906192502 41 12 4.0 6.0 0.00 0.00 0.00 83 1013.0
20260906190459 41 358 4.0 6.0 0.00 0.00 0.00 82 1012.9
20260906184132 41 358 4.0 7.0 0.00 0.00 0.00 84 1012.7
20260906182500 41 5 6.0 8.0 0.00 0.00 0.00 85 1012.7
20260906180132 41 343 5.0 8.0 0.00 0.00 0.00 87 1012.7
20260906174501 42 8 8.0 13.0 0.00 0.00 0.00 84 1012.6
20260906172132 42 359 3.0 4.0 0.00 0.00 0.00 81 1012.6
20260906170501 42 354 2.0 3.0 0.00 0.00 0.00 85 1012.5
20260906164504 42 20 6.0 10.0 0.00 0.00 0.00 85 1012.5
20260906162500 44 11 6.0 10.0 0.00 0.00 0.00 76 1012.3
20260906160500 44 359 5.0 7.0 0.00 0.00 0.00 76 1012.1
20260906154133 43 354 5.0 8.0 0.00 0.00 0.00 79 1012.0
20260906152501 42 39 6.0 10.0 0.00 0.00 0.00 83 1012.0
20260906144501 45 8 12.0 21.0 0.00 0.00 0.00 67 1011.4
20260906142131 45 20 11.0 17.0 0.00 0.00 0.00 71 1011.3
20260906134459 45 26 11.0 19.0 0.00 0.00 0.00 69 1010.9
20260906132459 45 18 13.0 20.0 0.00 0.00 0.00 75 1010.8
20260906124132 45 44 12.0 17.0 0.00 0.00 0.00 70 1010.4
20260906122500 46 14 13.0 20.0 0.00 0.00 0.00 67 1010.2
20260906120458 45 4 11.0 17.0 0.00 0.00 0.00 77 1010.1
20260906114501 43 11 11.0 19.0 0.00 0.00 0.00 82 1010.2
20260906112501 42 14 12.0 19.0 0.00 0.00 0.00 84 1010.1
20260906110131 45 2 9.0 16.0 0.00 0.00 0.00 73 1009.7
20260906104131 43 11 13.0 19.0 0.00 0.00 0.00 78 1009.7
20260906102131 44 4 11.0 17.0 0.00 0.00 0.00 69 1009.0
20260906094502 44 356 10.0 17.0 0.00 0.00 0.00 69 1009.1
20260906092132 43 1 11.0 18.0 0.00 0.00 0.00 70 1009.1
20260906090459 43 6 13.0 18.0 0.00 0.00 0.00 69 1009.0
20260906084459 43 6 13.0 22.0 0.00 0.00 0.00 70 1008.8
20260906082501 43 360 12.0 21.0 0.00 0.00 0.00 69 1008.6
20260906080501 43 6 13.0 23.0 0.00 0.00 0.00 68 1008.4
20260906074459 42 10 16.0 22.0 0.00 0.00 0.00 70 1008.3
20260906072131 41 354 14.0 22.0 0.00 0.00 0.00 73 1008.4
20260906070458 41 359 15.0 25.0 0.00 0.00 0.00 73 1008.3
20260906064130 42 10 14.0 24.0 0.00 0.00 0.00 72 1008.1
20260906062500 42 10 16.0 25.0 0.00 0.00 0.00 72 1007.8
20260906060130 41 7 13.0 22.0 0.00 0.00 0.00 75 1008.1
20260906050500 39 359 10.0 19.0 0.00 0.00 0.00 78 1007.9
20260906044457 38 349 7.0 11.0 0.00 0.00 0.00 80 1007.7
20260906042130 38 354 7.0 13.0 0.00 0.00 0.00 80 1007.6
20260906040459 38 360 9.0 14.0 0.00 0.00 0.00 80 1007.5
20260906034130 38 357 10.0 19.0 0.00 0.00 0.00 80 1007.4
20260906032459 38 358 10.0 15.0 0.00 0.00 0.00 80 1007.2
20260906030500 38 7 10.0 20.0 0.00 0.00 0.00 79 1007.1
20260906022500 38 2 12.0 20.0 0.00 0.00 0.00 79 1006.7
20260906020129 39 1 13.0 20.0 0.00 0.00 0.00 79 1006.7
20260906014130 41 6 12.0 20.0 0.00 0.00 0.00 77 1006.1
20260906012130 40 356 14.0 22.0 0.00 0.00 0.00 78 1006.3
20260906010500 41 6 12.0 20.0 0.00 0.00 0.00 77 1006.1
20260906004501 40 359 12.0 19.0 0.00 0.00 0.00 80 1005.5
20260906002458 40 7 12.0 19.0 0.00 0.00 0.00 79 1005.5
20260906000129 40 6 13.0 21.0 0.00 0.00 0.00 80 1005.6